This is the latest recevied weather packets stored in our database for station/object JR5YHL-13. If no packets are shown the sender has not sent any weather packets the latest 10 day(s).
| Time | Temp. | Humidity | Pressure | Rain* | Wind** | Luminosity | Snow |
|---|---|---|---|---|---|---|---|
| 1777866570 | 22.22° C | 31% | 1008.2 hPa | 0 mm | - | - | - |
| 1777865972 | 22.22° C | 30% | 1008.2 hPa | 0 mm | - | - | - |
| 1777865375 | 21.67° C | 32% | 1008.1 hPa | 0 mm | - | - | - |
| 1777864777 | 21.67° C | 32% | 1008.3 hPa | 0 mm | - | - | - |
| 1777864179 | 21.67° C | 34% | 1008.3 hPa | 0 mm | - | - | - |
| 1777863582 | 21.11° C | 38% | 1008.2 hPa | 0 mm | - | - | - |
| 1777862984 | 20.56° C | 37% | 1008.5 hPa | 0 mm | - | - | - |
| 1777862386 | 21.11° C | 39% | 1008.3 hPa | 0 mm | - | - | - |
| 1777861789 | 20.56° C | 38% | 1008.3 hPa | 0 mm | - | - | - |
| 1777861191 | 20.56° C | 39% | 1008.1 hPa | 0 mm | - | - | - |
| 1777860593 | 20.56° C | 39% | 1008.2 hPa | 0 mm | - | - | - |
| 1777859996 | 20.56° C | 39% | 1008 hPa | 0 mm | - | - | - |
| 1777859398 | 20.56° C | 40% | 1007.9 hPa | 0 mm | - | - | - |
| 1777858800 | 20.56° C | 38% | 1008 hPa | 0 mm | - | - | - |
| 1777858202 | 21.11° C | 41% | 1008 hPa | 0 mm | - | - | - |
| 1777857605 | 21.11° C | 39% | 1007.7 hPa | 0 mm | - | - | - |
| 1777857007 | 20.56° C | 41% | 1007.4 hPa | 0 mm | - | - | - |
| 1777856409 | 20.56° C | 40% | 1007.5 hPa | 0 mm | - | - | - |
| 1777855811 | 21.11° C | 39% | 1007.4 hPa | 0 mm | - | - | - |
| 1777855214 | 21.67° C | 40% | 1007.4 hPa | 0 mm | - | - | - |
| 1777854616 | 22.22° C | 39% | 1007.2 hPa | 0 mm | - | - | - |
| 1777854018 | 22.78° C | 39% | 1007.2 hPa | 0 mm | - | - | - |
| 1777853420 | 23.33° C | 42% | 1007.2 hPa | 0 mm | - | - | - |
| 1777852823 | 22.78° C | 43% | 1007.1 hPa | 0 mm | - | - | - |
| 1777852225 | 21.67° C | 43% | 1007.1 hPa | 0 mm | - | - | - |
* Rain latest hour (hover to see other rain measurements)
** Current wind speed in m/s (hover to see current wind gust speed)